Location: Columbia
(38.9520°N, 92.3340°W)
Time: 19:37:41
(UTC-05:00)

SL-08 RB Rocket - Visible Passes

Search period start: 28 July 2015 00:00
Search period end: 07 August 2015 00:00
Orbit: 649 x 686 km, 98.1° (Epoch: 28 July)

Date Brightness Start Highest point End Pass type
(mag) Time Alt. Az. Time Alt. Az. Time Alt. Az.
28 Jul 5.4 21:40:33 15° E 21:42:14 19° ENE 21:45:25 10° NNE visible
28 Jul 4.6 23:18:42 39° WSW 23:19:03 39° W 23:23:17 10° NNW visible
29 Jul 4.3 22:12:56 33° ESE 22:14:00 38° ENE 22:18:12 10° N visible
29 Jul 5.8 23:51:06 18° W 23:51:17 18° W 23:54:18 10° NW visible
30 Jul 3.5 22:45:20 69° SSE 22:45:53 87° ENE 22:50:25 10° NNW visible
31 Jul 5.4 21:39:34 15° E 21:41:06 18° ENE 21:44:14 10° NNE visible
31 Jul 4.5 23:17:44 41° WSW 23:17:54 41° W 23:22:10 10° NNW visible
01 Aug 4.4 22:11:58 34° E 22:12:51 37° ENE 22:17:04 10° N visible
01 Aug 5.8 23:50:08 19° W 23:50:08 19° W 23:53:14 10° NW visible
02 Aug 3.5 22:44:22 75° SE 22:44:44 85° ENE 22:49:17 10° NNW visible
03 Aug 5.4 21:38:36 16° E 21:39:58 18° ENE 21:43:04 10° NNE visible
03 Aug 4.5 23:16:47 42° W 23:16:47 42° W 23:21:03 10° NNW visible
04 Aug 4.4 22:11:01 34° E 22:11:43 37° ENE 22:15:55 10° N visible
04 Aug 5.8 23:49:10 19° W 23:49:10 19° W 23:52:09 10° NW visible
05 Aug 3.5 22:43:25 80° ESE 22:43:35 82° ENE 22:48:09 10° N visible
06 Aug 5.4 21:37:39 16° E 21:38:50 17° ENE 21:41:53 10° NNE visible
06 Aug 4.6 23:15:49 43° W 23:15:49 43° W 23:19:57 10° NNW visible
